sat.trackr.live / text

‹ back to catalog

STARLINK-3830

NORAD 52363 · 2022-045AJ

PAYLOAD ACTIVE UNKNOWN

§ Identity

Operator
Country
US
Launch date
2022-04-29
Launch site
AFETR
Launch vehicle
Mass (kg)
RCS (m²)

Purposes: comms

External: N2YO · Heavens-Above · Gunter

§ Orbital elements

Epoch: 2026-09-19T23:19:57.766368Z

Period
93.85 min
Inclination
53.1603°
Eccentricity
0.0001047
Mean motion
15.34388472 rev/d
Perigee alt
462.0 km
Apogee alt
463.5 km
Semi-major
6,840.9 km
B*
1.2438e-5
RAAN
32.5125°
Arg perigee
87.7248°
Mean anomaly
272.3874°
Rev number
24,531

§ Raw data

STARLINK-38301 52363U 22045AJ  26262.97219637  .00000044  00000+0  12438-4 0  99932 52363  53.1603  32.5125 0001047  87.7248 272.3874 15.34388472245318

JSON: /api/v1/satellites/52363 · /tle

For live sub-satellite position, see the globe view (requires WebGL).

§ Visibility from observer

Set your observer location to see the next 7 days of passes ≥ 10°. The values pass through the URL so the page stays shareable.

No JS? Fill the form by hand. The geolocation button needs JavaScript.